| time (UTC) | temp F | wind direction | speed knots | gust knots | rain 1hr in | rain 24hr in | rain mn in | humidity % | barometer mb |
| 20260508100927 | 56 | 198 | 5.2 | 9.6 | 0.00 | 0.00 | 0.00 | 56 | 991.1 |
| 20260508100415 | 56 | 234 | 5.2 | 9.6 | 0.00 | 0.00 | 0.00 | 56 | 991.2 |
| 20260508095914 | 56 | 219 | 7.0 | 8.7 | 0.00 | 0.00 | 0.00 | 58 | 991.1 |
| 20260508095403 | 56 | 277 | 5.2 | 5.2 | 0.00 | 0.00 | 0.00 | 60 | 991.1 |
| 20260508094949 | 56 | 236 | 2.6 | 4.3 | 0.00 | 0.00 | 0.00 | 64 | 991.0 |
| 20260508094402 | 55 | 80 | 0.0 | 8.7 | 0.00 | 0.00 | 0.00 | 64 | 991.1 |
| 20260508093907 | 55 | 180 | 0.9 | 7.8 | 0.00 | 0.00 | 0.00 | 69 | 991.2 |
| 20260508093356 | 55 | 140 | 3.5 | 12.2 | 0.00 | 0.00 | 0.00 | 70 | 991.2 |
| 20260508092923 | 54 | 171 | 4.3 | 6.1 | 0.00 | 0.00 | 0.00 | 76 | 991.3 |
| 20260508092349 | 54 | 142 | 3.5 | 7.8 | 0.00 | 0.00 | 0.00 | 79 | 991.3 |
| 20260508091856 | 53 | 269 | 0.9 | 7.8 | 0.00 | 0.00 | 0.00 | 85 | 991.3 |
| 20260508090852 | 52 | 101 | 4.3 | 5.2 | 0.00 | 0.00 | 0.00 | 92 | 991.4 |
| 20260508090336 | 52 | 204 | 1.7 | 5.2 | 0.00 | 0.00 | 0.00 | 91 | 991.3 |
| 20260508085848 | 52 | 157 | 3.5 | 4.3 | 0.00 | 0.00 | 0.00 | 89 | 991.3 |
| 20260508085331 | 52 | 94 | 1.7 | 3.5 | 0.00 | 0.00 | 0.00 | 90 | 991.4 |
| 20260508084837 | 52 | 223 | 0.0 | 2.6 | 0.00 | 0.00 | 0.00 | 90 | 991.4 |
| 20260508084331 | 51 | 266 | 0.9 | 3.5 | 0.00 | 0.00 | 0.00 | 89 | 991.4 |
| 20260508083830 | 51 | 180 | 0.9 | 1.7 | 0.00 | 0.00 | 0.00 | 94 | 991.4 |
| 20260508083318 | 51 | 191 | 0.9 | 5.2 | 0.00 | 0.00 | 0.00 | 93 | 991.2 |
| 20260508082827 | 51 | 214 | 0.9 | 1.7 | 0.00 | 0.00 | 0.00 | 96 | 991.2 |
| 20260508082322 | 51 | 104 | 0.0 | 2.6 | 0.00 | 0.00 | 0.00 | 96 | 991.2 |
| 20260508081818 | 51 | 246 | 1.7 | 3.5 | 0.00 | 0.00 | 0.00 | 95 | 991.2 |
| 20260508081311 | 51 | 268 | 2.6 | 2.6 | 0.00 | 0.00 | 0.00 | 95 | 991.1 |
| 20260508080812 | 51 | 206 | 0.9 | 2.6 | 0.00 | 0.00 | 0.00 | 99 | 991.1 |
| 20260508080258 | 51 | 211 | 0.9 | 3.5 | 0.00 | 0.00 | 0.00 | 100 | 991.0 |
| 20260508075755 | 51 | 268 | 0.9 | 1.7 | 0.00 | 0.00 | 0.00 | 100 | 991.0 |
| 20260508075252 | 51 | 254 | 0.9 | 0.9 | 0.00 | 0.00 | 0.00 | 100 | 991.0 |
| 20260508074811 | 50 | 145 | 0.9 | 0.9 | 0.00 | 0.00 | 0.00 | 100 | 990.9 |
| 20260508074243 | 50 | 128 | 0.9 | 2.6 | 0.00 | 0.00 | 0.00 | 100 | 990.9 |
| 20260508073816 | 49 | 225 | 0.9 | 1.7 | 0.00 | 0.00 | 0.00 | 100 | 990.9 |
| 20260508073239 | 49 | 160 | 0.0 | 0.9 | 0.00 | 0.00 | 0.00 | 100 | 990.9 |
| 20260508072810 | 48 | 289 | 0.0 | 0.0 | 0.00 | 0.00 | 0.00 | 100 | 990.8 |
| 20260508072233 | 48 | 269 | 0.0 | 0.0 | 0.00 | 0.00 | 0.00 | 100 | 990.9 |
| 20260508071745 | 47 | 342 | 0.0 | 0.9 | 0.00 | 0.00 | 0.00 | 100 | 990.7 |
| 20260508071224 | 47 | 315 | 0.0 | 0.9 | 0.00 | 0.00 | 0.00 | 100 | 990.8 |
| 20260508070743 | 47 | 270 | 0.0 | 0.9 | 0.00 | 0.00 | 0.00 | 100 | 990.7 |
| 20260508070220 | 47 | 315 | 0.0 | 0.0 | 0.00 | 0.00 | 0.00 | 100 | 990.6 |
| 20260508065802 | 46 | 315 | 0.0 | 0.0 | 0.00 | 0.00 | 0.00 | 100 | 990.5 |
| 20260508065214 | 46 | 285 | 0.0 | 0.0 | 0.00 | 0.00 | 0.00 | 100 | 990.4 |
| 20260508064719 | 46 | 280 | 0.0 | 0.0 | 0.00 | 0.00 | 0.00 | 100 | 990.3 |
| 20260508064205 | 46 | 90 | 0.0 | 0.0 | 0.00 | 0.00 | 0.00 | 100 | 990.3 |
| 20260508063726 | 46 | 225 | 0.0 | 0.0 | 0.00 | 0.00 | 0.00 | 100 | 990.4 |
| 20260508063214 | 45 | 270 | 0.0 | 0.0 | 0.00 | 0.00 | 0.00 | 100 | 990.4 |
| 20260508062724 | 45 | 45 | 0.0 | 0.9 | 0.00 | 0.00 | 0.00 | 100 | 990.6 |
| 20260508062206 | 45 | 231 | 0.0 | 0.9 | 0.00 | 0.00 | 0.00 | 100 | 990.5 |
| 20260508061659 | 45 | 180 | 0.0 | 0.0 | 0.00 | 0.00 | 0.00 | 100 | 990.1 |
| 20260508061157 | 44 | 135 | 0.0 | 0.9 | 0.00 | 0.00 | 0.00 | 100 | 990.0 |
| 20260508060701 | 44 | 90 | 0.0 | 0.0 | 0.00 | 0.00 | 0.00 | 100 | 990.1 |
| 20260508060142 | 44 | 33 | 0.0 | 0.9 | 0.00 | 0.00 | 0.00 | 100 | 990.2 |
| 20260508055723 | 44 | 33 | 0.0 | 0.0 | 0.00 | 0.00 | 0.00 | 100 | 990.1 |
| 20260508055159 | 44 | 135 | 0.0 | 0.9 | 0.00 | 0.00 | 0.00 | 100 | 990.2 |
| 20260508054647 | 44 | 90 | 0.9 | 0.9 | 0.00 | 0.00 | 0.00 | 100 | 990.3 |
| 20260508054138 | 44 | 94 | 0.0 | 0.9 | 0.00 | 0.00 | 0.00 | 100 | 990.1 |
| 20260508053649 | 44 | 89 | 0.0 | 0.0 | 0.00 | 0.00 | 0.00 | 100 | 990.0 |
| 20260508053123 | 44 | 19 | 0.0 | 0.0 | 0.00 | 0.00 | 0.00 | 100 | 990.0 |
| 20260508052110 | 44 | 270 | 0.0 | 0.0 | 0.00 | 0.00 | 0.00 | 100 | 990.0 |
| 20260508051652 | 44 | 270 | 0.0 | 0.0 | 0.00 | 0.00 | 0.00 | 100 | 990.0 |
| 20260508051124 | 44 | 315 | 0.0 | 0.0 | 0.00 | 0.00 | 0.00 | 100 | 989.9 |
| 20260508050639 | 44 | 315 | 0.0 | 0.0 | 0.00 | 0.00 | 0.00 | 100 | 989.8 |
| 20260508050058 | 45 | 270 | 0.0 | 0.0 | 0.00 | 0.00 | 0.00 | 100 | 989.9 |
| 20260508045636 | 44 | 270 | 0.0 | 0.0 | 0.00 | 0.00 | 0.00 | 100 | 989.8 |
| 20260508045058 | 45 | 90 | 0.0 | 0.9 | 0.00 | 0.00 | 0.00 | 100 | 989.8 |
| 20260508044611 | 45 | 131 | 0.0 | 0.9 | 0.00 | 0.00 | 0.00 | 100 | 989.8 |
| 20260508043559 | 45 | 270 | 0.0 | 0.0 | 0.00 | 0.00 | 0.00 | 100 | 989.7 |
| 20260508043039 | 45 | 270 | 0.0 | 0.0 | 0.00 | 0.00 | 0.00 | 100 | 989.8 |
| 20260508042606 | 45 | 274 | 0.0 | 0.0 | 0.00 | 0.00 | 0.00 | 100 | 989.7 |
| 20260508042041 | 45 | 270 | 0.0 | 0.0 | 0.00 | 0.00 | 0.00 | 100 | 989.8 |
| 20260508041542 | 45 | 270 | 0.0 | 0.0 | 0.00 | 0.00 | 0.00 | 100 | 989.8 |
| 20260508041056 | 46 | 92 | 0.0 | 0.9 | 0.00 | 0.00 | 0.00 | 100 | 989.8 |
| 20260508040538 | 46 | 90 | 0.0 | 0.9 | 0.00 | 0.00 | 0.00 | 100 | 989.8 |
| 20260508040029 | 46 | 121 | 0.9 | 0.9 | 0.00 | 0.00 | 0.00 | 100 | 989.7 |
| 20260508035549 | 46 | 180 | 0.0 | 0.0 | 0.00 | 0.00 | 0.00 | 100 | 989.6 |
| 20260508035014 | 46 | 180 | 0.0 | 0.0 | 0.00 | 0.00 | 0.00 | 100 | 989.6 |
| 20260508034524 | 46 | 180 | 0.0 | 0.0 | 0.00 | 0.00 | 0.00 | 100 | 989.7 |
| 20260508034027 | 46 | 180 | 0.0 | 0.0 | 0.00 | 0.00 | 0.00 | 100 | 989.7 |
| 20260508033529 | 46 | 180 | 0.0 | 0.0 | 0.00 | 0.00 | 0.00 | 100 | 989.6 |
| 20260508033003 | 46 | 180 | 0.0 | 0.9 | 0.00 | 0.00 | 0.00 | 100 | 989.7 |
| 20260508031955 | 46 | 225 | 0.0 | 0.0 | 0.00 | 0.00 | 0.00 | 100 | 989.7 |
| 20260508031511 | 46 | 241 | 0.0 | 0.0 | 0.00 | 0.00 | 0.00 | 100 | 989.7 |
| 20260508031012 | 47 | 90 | 0.0 | 0.0 | 0.00 | 0.00 | 0.00 | 100 | 989.6 |
| 20260508030457 | 47 | 270 | 0.0 | 0.0 | 0.00 | 0.00 | 0.00 | 100 | 989.7 |
| 20260508025942 | 47 | 270 | 0.0 | 0.0 | 0.00 | 0.00 | 0.00 | 100 | 989.7 |
| 20260508025503 | 47 | 315 | 0.0 | 0.0 | 0.00 | 0.00 | 0.00 | 100 | 989.7 |
| 20260508024934 | 47 | 315 | 0.0 | 0.0 | 0.00 | 0.00 | 0.00 | 100 | 989.9 |
| 20260508024443 | 47 | 315 | 0.0 | 0.0 | 0.00 | 0.00 | 0.00 | 100 | 989.9 |
| 20260508023945 | 47 | 315 | 0.0 | 0.0 | 0.00 | 0.00 | 0.00 | 100 | 989.7 |
| 20260508023441 | 47 | 315 | 0.0 | 0.0 | 0.00 | 0.00 | 0.00 | 100 | 989.8 |
| 20260508022921 | 47 | 315 | 0.0 | 0.0 | 0.00 | 0.00 | 0.00 | 100 | 989.9 |
| 20260508022450 | 47 | 315 | 0.0 | 0.0 | 0.00 | 0.00 | 0.00 | 100 | 989.9 |
| 20260508021915 | 47 | 315 | 0.0 | 0.9 | 0.00 | 0.00 | 0.00 | 100 | 989.9 |
| 20260508021428 | 47 | 315 | 0.0 | 0.9 | 0.00 | 0.00 | 0.00 | 100 | 989.9 |
| 20260508020415 | 47 | 270 | 0.9 | 0.9 | 0.00 | 0.00 | 0.00 | 100 | 990.0 |
| 20260508015929 | 48 | 315 | 0.0 | 0.9 | 0.00 | 0.00 | 0.00 | 100 | 990.0 |
| 20260508015426 | 48 | 315 | 0.0 | 0.9 | 0.00 | 0.00 | 0.00 | 100 | 990.2 |
| 20260508014912 | 48 | 315 | 0.9 | 0.9 | 0.00 | 0.00 | 0.00 | 100 | 990.2 |
| 20260508014409 | 48 | 225 | 0.0 | 0.9 | 0.00 | 0.00 | 0.00 | 100 | 990.2 |
| 20260508013852 | 47 | 135 | 0.9 | 0.9 | 0.00 | 0.00 | 0.00 | 100 | 990.1 |
| 20260508013402 | 47 | 315 | 0.0 | 0.9 | 0.00 | 0.00 | 0.00 | 100 | 989.8 |
| 20260508012423 | 47 | 315 | 0.0 | 0.0 | 0.00 | 0.00 | 0.00 | 100 | 990.3 |
| 20260508011846 | 47 | 315 | 0.0 | 0.0 | 0.00 | 0.00 | 0.00 | 100 | 990.3 |
| 20260508011350 | 47 | 315 | 0.0 | 0.9 | 0.00 | 0.00 | 0.00 | 100 | 990.2 |
| 20260508010831 | 47 | 315 | 0.0 | 0.0 | 0.00 | 0.00 | 0.00 | 100 | 990.2 |
| 20260508010347 | 47 | 315 | 0.0 | 0.0 | 0.00 | 0.00 | 0.00 | 100 | 990.2 |
| 20260508005829 | 48 | 315 | 0.0 | 0.0 | 0.00 | 0.00 | 0.00 | 100 | 990.3 |
| 20260508005334 | 48 | 315 | 0.0 | 0.0 | 0.00 | 0.00 | 0.00 | 100 | 990.2 |
| 20260508004845 | 48 | 315 | 0.0 | 0.0 | 0.00 | 0.00 | 0.00 | 100 | 990.1 |
| 20260508004326 | 48 | 315 | 0.0 | 0.0 | 0.00 | 0.00 | 0.00 | 100 | 990.2 |
| 20260508003327 | 48 | 315 | 0.0 | 0.0 | 0.00 | 0.00 | 0.00 | 100 | 990.2 |
| 20260508002817 | 49 | 90 | 0.0 | 0.0 | 0.00 | 0.00 | 0.00 | 100 | 990.2 |
| 20260508002315 | 49 | 90 | 0.0 | 0.0 | 0.00 | 0.00 | 0.00 | 100 | 990.4 |
| 20260508001806 | 49 | 89 | 0.0 | 0.0 | 0.00 | 0.00 | 0.00 | 100 | 990.5 |
| 20260508001301 | 49 | 180 | 0.0 | 0.9 | 0.00 | 0.00 | 0.00 | 100 | 990.5 |
| 20260508000817 | 49 | 180 | 0.0 | 0.0 | 0.00 | 0.00 | 0.00 | 100 | 990.4 |
| 20260508000334 | 49 | 270 | 0.0 | 0.0 | 0.00 | 0.00 | 0.00 | 100 | 990.4 |
| 20260507235809 | 49 | 0 | 0.0 | 0.9 | 0.00 | 0.00 | 0.00 | 100 | 990.5 |
| 20260507235259 | 49 | 45 | 0.0 | 0.0 | 0.00 | 0.00 | 0.00 | 100 | 990.5 |
| 20260507234252 | 49 | 270 | 0.0 | 0.0 | 0.00 | 0.00 | 0.00 | 100 | 990.6 |
| 20260507233249 | 49 | 225 | 0.0 | 0.0 | 0.00 | 0.00 | 0.00 | 100 | 990.7 |
| 20260507232742 | 49 | 225 | 0.0 | 0.0 | 0.00 | 0.00 | 0.00 | 100 | 990.8 |
| 20260507232240 | 49 | 225 | 0.0 | 0.0 | 0.00 | 0.00 | 0.00 | 100 | 990.9 |
| 20260507231226 | 49 | 270 | 0.0 | 0.9 | 0.00 | 0.00 | 0.00 | 100 | 990.9 |
| 20260507230740 | 49 | 270 | 0.0 | 1.7 | 0.00 | 0.00 | 0.00 | 100 | 990.8 |
| 20260507230227 | 49 | 320 | 0.9 | 0.9 | 0.00 | 0.00 | 0.00 | 100 | 990.8 |
| 20260507225716 | 50 | 298 | 0.9 | 0.9 | 0.00 | 0.00 | 0.00 | 100 | 990.9 |
| 20260507225231 | 50 | 309 | 0.9 | 0.9 | 0.00 | 0.00 | 0.00 | 100 | 991.0 |
| 20260507222707 | 50 | 270 | 0.9 | 2.6 | 0.00 | 0.00 | 0.00 | 100 | 991.2 |
| 20260507222205 | 50 | 304 | 0.9 | 1.7 | 0.00 | 0.00 | 0.00 | 100 | 991.3 |
| 20260507221648 | 49 | 324 | 1.7 | 1.7 | 0.00 | 0.00 | 0.00 | 100 | 991.2 |
| 20260507221215 | 49 | 272 | 0.0 | 0.9 | 0.00 | 0.00 | 0.00 | 100 | 991.4 |
| 20260507220642 | 49 | 315 | 0.0 | 0.9 | 0.00 | 0.00 | 0.00 | 100 | 991.3 |
| 20260507220206 | 49 | 288 | 0.0 | 1.7 | 0.00 | 0.00 | 0.00 | 100 | 991.4 |
| 20260507215636 | 49 | 307 | 1.7 | 1.7 | 0.00 | 0.00 | 0.00 | 100 | 991.3 |
| 20260507215143 | 49 | 315 | 0.9 | 2.6 | 0.00 | 0.00 | 0.00 | 100 | 991.2 |
| 20260507214700 | 49 | 290 | 0.9 | 1.7 | 0.00 | 0.00 | 0.00 | 100 | 991.4 |
| 20260507214140 | 49 | 313 | 0.9 | 1.7 | 0.00 | 0.00 | 0.00 | 100 | 991.3 |
| 20260507213633 | 50 | 313 | 0.9 | 1.7 | 0.00 | 0.00 | 0.00 | 100 | 991.4 |
| 20260507213141 | 50 | 315 | 0.0 | 1.7 | 0.00 | 0.00 | 0.00 | 100 | 991.3 |
| 20260507212655 | 50 | 289 | 0.9 | 1.7 | 0.00 | 0.00 | 0.00 | 99 | 991.5 |
| 20260507211645 | 50 | 279 | 0.9 | 1.7 | 0.00 | 0.00 | 0.00 | 95 | 991.4 |
| 20260507211132 | 51 | 315 | 0.9 | 1.7 | 0.00 | 0.00 | 0.00 | 93 | 991.4 |
| 20260507210147 | 51 | 289 | 0.9 | 1.7 | 0.00 | 0.00 | 0.00 | 92 | 991.5 |
| 20260507205116 | 51 | 293 | 0.9 | 1.7 | 0.00 | 0.00 | 0.00 | 89 | 991.4 |
| 20260507204628 | 51 | 274 | 1.7 | 1.7 | 0.00 | 0.00 | 0.00 | 88 | 991.3 |
| 20260507204124 | 51 | 284 | 0.9 | 2.6 | 0.00 | 0.00 | 0.00 | 87 | 991.2 |
| 20260507203548 | 52 | 287 | 0.9 | 2.6 | 0.00 | 0.00 | 0.00 | 86 | 991.1 |
| 20260507203142 | 52 | 307 | 0.9 | 4.3 | 0.00 | 0.00 | 0.00 | 85 | 991.1 |
| 20260507202545 | 52 | 292 | 0.9 | 4.3 | 0.00 | 0.00 | 0.00 | 84 | 991.1 |
| 20260507202100 | 52 | 315 | 0.9 | 1.7 | 0.00 | 0.00 | 0.00 | 84 | 991.0 |
| 20260507201118 | 52 | 310 | 2.6 | 4.3 | 0.00 | 0.00 | 0.00 | 82 | 990.8 |
| 20260507200542 | 53 | 315 | 0.0 | 3.5 | 0.00 | 0.00 | 0.00 | 81 | 990.9 |
| 20260507200053 | 53 | 312 | 5.2 | 5.2 | 0.00 | 0.00 | 0.00 | 80 | 990.8 |
| 20260507195544 | 53 | 309 | 2.6 | 5.2 | 0.00 | 0.00 | 0.00 | 80 | 990.7 |
| 20260507195049 | 53 | 316 | 2.6 | 7.8 | 0.00 | 0.00 | 0.00 | 79 | 990.7 |
| 20260507194540 | 53 | 331 | 1.7 | 3.5 | 0.00 | 0.00 | 0.00 | 78 | 990.7 |
| 20260507194052 | 53 | 303 | 0.9 | 6.1 | 0.00 | 0.00 | 0.00 | 77 | 990.6 |
| 20260507193516 | 53 | 312 | 2.6 | 5.2 | 0.00 | 0.00 | 0.00 | 77 | 990.6 |
| 20260507192514 | 53 | 283 | 4.3 | 5.2 | 0.00 | 0.00 | 0.00 | 75 | 990.4 |
| 20260507192032 | 54 | 310 | 4.3 | 7.0 | 0.00 | 0.00 | 0.00 | 75 | 990.4 |
| 20260507191507 | 54 | 303 | 2.6 | 6.1 | 0.00 | 0.00 | 0.00 | 75 | 990.4 |
| 20260507191018 | 54 | 296 | 4.3 | 12.2 | 0.00 | 0.00 | 0.00 | 74 | 990.4 |
| 20260507190453 | 54 | 271 | 7.0 | 8.7 | 0.00 | 0.00 | 0.00 | 73 | 990.2 |
| 20260507185450 | 55 | 268 | 5.2 | 12.2 | 0.00 | 0.00 | 0.00 | 71 | 990.2 |
| 20260507185003 | 55 | 308 | 3.5 | 13.0 | 0.00 | 0.00 | 0.00 | 71 | 990.2 |
| 20260507184456 | 55 | 313 | 4.3 | 11.3 | 0.00 | 0.00 | 0.00 | 70 | 990.1 |
| 20260507183957 | 55 | 261 | 5.2 | 8.7 | 0.00 | 0.00 | 0.00 | 69 | 990.0 |
| 20260507183431 | 56 | 276 | 4.3 | 8.7 | 0.00 | 0.00 | 0.00 | 68 | 989.9 |
| 20260507182416 | 56 | 310 | 5.2 | 7.8 | 0.00 | 0.00 | 0.00 | 64 | 989.8 |
| 20260507181946 | 56 | 271 | 2.6 | 10.4 | 0.00 | 0.00 | 0.00 | 64 | 989.7 |
| 20260507181423 | 57 | 295 | 3.5 | 8.7 | 0.00 | 0.00 | 0.00 | 63 | 989.6 |
| 20260507180922 | 57 | 311 | 7.0 | 14.8 | 0.00 | 0.00 | 0.00 | 63 | 989.6 |
| 20260507180409 | 57 | 309 | 7.8 | 10.4 | 0.00 | 0.00 | 0.00 | 62 | 989.4 |
| 20260507175948 | 58 | 301 | 3.5 | 10.4 | 0.00 | 0.00 | 0.00 | 61 | 989.3 |
| 20260507175403 | 58 | 305 | 9.6 | 13.9 | 0.00 | 0.00 | 0.00 | 60 | 989.4 |
| 20260507174906 | 58 | 307 | 6.1 | 10.4 | 0.00 | 0.00 | 0.00 | 58 | 989.1 |
| 20260507174412 | 58 | 300 | 4.3 | 11.3 | 0.00 | 0.00 | 0.00 | 57 | 989.2 |
| 20260507173912 | 59 | 297 | 2.6 | 11.3 | 0.00 | 0.00 | 0.00 | 57 | 989.2 |
| 20260507173351 | 59 | 284 | 3.5 | 9.6 | 0.00 | 0.00 | 0.00 | 56 | 989.1 |
| 20260507172918 | 60 | 285 | 7.0 | 10.4 | 0.00 | 0.00 | 0.00 | 54 | 989.1 |
| 20260507172341 | 60 | 350 | 6.1 | 7.8 | 0.00 | 0.00 | 0.00 | 53 | 989.1 |
| 20260507171854 | 60 | 315 | 7.8 | 9.6 | 0.00 | 0.00 | 0.00 | 51 | 989.1 |
| 20260507171410 | 61 | 310 | 6.1 | 8.7 | 0.00 | 0.00 | 0.00 | 49 | 989.1 |
| 20260507170854 | 62 | 298 | 6.1 | 7.0 | 0.00 | 0.00 | 0.00 | 47 | 989.0 |
| 20260507170337 | 62 | 274 | 6.1 | 8.7 | 0.00 | 0.00 | 0.00 | 42 | 988.9 |
| 20260507165859 | 62 | 272 | 5.2 | 14.8 | 0.00 | 0.00 | 0.00 | 42 | 989.0 |
| 20260507165321 | 63 | 270 | 7.0 | 12.2 | 0.00 | 0.00 | 0.00 | 42 | 989.0 |
| 20260507164832 | 63 | 283 | 5.2 | 7.8 | 0.00 | 0.00 | 0.00 | 42 | 989.1 |
| 20260507164341 | 62 | 264 | 2.6 | 7.0 | 0.00 | 0.00 | 0.00 | 44 | 989.0 |
| 20260507163816 | 62 | 265 | 7.8 | 7.8 | 0.00 | 0.00 | 0.00 | 42 | 989.0 |
| 20260507163308 | 63 | 283 | 5.2 | 7.0 | 0.00 | 0.00 | 0.00 | 41 | 988.9 |
| 20260507162849 | 64 | 280 | 4.3 | 8.7 | 0.00 | 0.00 | 0.00 | 40 | 988.8 |
| 20260507162307 | 63 | 287 | 2.6 | 8.7 | 0.00 | 0.00 | 0.00 | 40 | 988.8 |
| 20260507161827 | 63 | 277 | 3.5 | 7.8 | 0.00 | 0.00 | 0.00 | 40 | 988.8 |
| 20260507161327 | 63 | 286 | 4.3 | 8.7 | 0.00 | 0.00 | 0.00 | 40 | 988.9 |
| 20260507160809 | 62 | 314 | 4.3 | 7.0 | 0.00 | 0.00 | 0.00 | 40 | 988.8 |
| 20260507160253 | 63 | 300 | 5.2 | 9.6 | 0.00 | 0.00 | 0.00 | 39 | 989.0 |
| 20260507155835 | 63 | 270 | 7.0 | 7.8 | 0.00 | 0.00 | 0.00 | 39 | 989.0 |
| 20260507155247 | 64 | 307 | 2.6 | 7.8 | 0.00 | 0.00 | 0.00 | 37 | 989.0 |
| 20260507154744 | 65 | 256 | 3.5 | 6.1 | 0.00 | 0.00 | 0.00 | 36 | 989.1 |
| 20260507153746 | 63 | 319 | 3.5 | 3.5 | 0.00 | 0.00 | 0.00 | 39 | 989.1 |
| 20260507153234 | 62 | 265 | 0.9 | 7.8 | 0.00 | 0.00 | 0.00 | 40 | 989.2 |
| 20260507152228 | 63 | 273 | 6.1 | 7.8 | 0.00 | 0.00 | 0.00 | 36 | 989.2 |
| 20260507151735 | 63 | 258 | 1.7 | 4.3 | 0.00 | 0.00 | 0.00 | 40 | 989.3 |
| 20260507151236 | 62 | 307 | 4.3 | 6.1 | 0.00 | 0.00 | 0.00 | 40 | 989.4 |
| 20260507150716 | 63 | 280 | 3.5 | 8.7 | 0.00 | 0.00 | 0.00 | 39 | 989.2 |
| 20260507150220 | 63 | 291 | 5.2 | 9.6 | 0.00 | 0.00 | 0.00 | 39 | 989.3 |
| 20260507145729 | 62 | 298 | 2.6 | 6.1 | 0.00 | 0.00 | 0.00 | 39 | 989.4 |
| 20260507145208 | 63 | 234 | 0.9 | 4.3 | 0.00 | 0.00 | 0.00 | 38 | 989.5 |
| 20260507144714 | 64 | 189 | 4.3 | 7.8 | 0.00 | 0.00 | 0.00 | 37 | 989.5 |
| 20260507144215 | 63 | 323 | 4.3 | 7.0 | 0.00 | 0.00 | 0.00 | 39 | 989.5 |
| 20260507143711 | 63 | 275 | 7.0 | 8.7 | 0.00 | 0.00 | 0.00 | 40 | 989.6 |
| 20260507143156 | 62 | 262 | 4.3 | 10.4 | 0.00 | 0.00 | 0.00 | 41 | 989.7 |
| 20260507142712 | 62 | 292 | 6.1 | 7.8 | 0.00 | 0.00 | 0.00 | 41 | 989.9 |
| 20260507141703 | 62 | 262 | 2.6 | 6.1 | 0.00 | 0.00 | 0.00 | 40 | 990.0 |
| 20260507141157 | 62 | 262 | 1.7 | 7.0 | 0.00 | 0.00 | 0.00 | 40 | 990.0 |
| 20260507140713 | 62 | 233 | 2.6 | 9.6 | 0.00 | 0.00 | 0.00 | 41 | 990.0 |
| 20260507140137 | 62 | 303 | 5.2 | 9.6 | 0.00 | 0.00 | 0.00 | 42 | 990.1 |
| 20260507135652 | 62 | 320 | 8.7 | 8.7 | 0.00 | 0.00 | 0.00 | 41 | 990.0 |
| 20260507135130 | 63 | 280 | 4.3 | 5.2 | 0.00 | 0.00 | 0.00 | 39 | 990.0 |
| 20260507134640 | 63 | 260 | 1.7 | 7.8 | 0.00 | 0.00 | 0.00 | 38 | 990.0 |
| 20260507134124 | 63 | 270 | 3.5 | 7.0 | 0.00 | 0.00 | 0.00 | 38 | 989.9 |
| 20260507133636 | 62 | 69 | 0.9 | 6.1 | 0.00 | 0.00 | 0.00 | 39 | 990.0 |
| 20260507133117 | 63 | 261 | 6.1 | 7.0 | 0.00 | 0.00 | 0.00 | 39 | 990.1 |
| 20260507132634 | 63 | 305 | 2.6 | 8.7 | 0.00 | 0.00 | 0.00 | 40 | 990.0 |
| 20260507132111 | 62 | 290 | 5.2 | 6.1 | 0.00 | 0.00 | 0.00 | 41 | 990.0 |
| 20260507131617 | 62 | 290 | 2.6 | 7.8 | 0.00 | 0.00 | 0.00 | 41 | 990.2 |
| 20260507131129 | 63 | 317 | 3.5 | 7.8 | 0.00 | 0.00 | 0.00 | 39 | 990.2 |
| 20260507130604 | 63 | 279 | 2.6 | 5.2 | 0.00 | 0.00 | 0.00 | 37 | 990.3 |
| 20260507130105 | 63 | 289 | 1.7 | 3.5 | 0.00 | 0.00 | 0.00 | 39 | 990.3 |
| 20260507125605 | 62 | 192 | 2.6 | 5.2 | 0.00 | 0.00 | 0.00 | 39 | 990.4 |
| 20260507125052 | 62 | 264 | 2.6 | 7.0 | 0.00 | 0.00 | 0.00 | 42 | 990.5 |
| 20260507124558 | 62 | 204 | 1.7 | 9.6 | 0.00 | 0.00 | 0.00 | 42 | 990.5 |
| 20260507124051 | 61 | 266 | 3.5 | 7.0 | 0.00 | 0.00 | 0.00 | 42 | 990.5 |
| 20260507123553 | 61 | 279 | 5.2 | 7.0 | 0.00 | 0.00 | 0.00 | 43 | 990.6 |
| 20260507123039 | 61 | 252 | 5.2 | 10.4 | 0.00 | 0.00 | 0.00 | 42 | 990.7 |
| 20260507122033 | 61 | 281 | 3.5 | 7.0 | 0.00 | 0.00 | 0.00 | 44 | 990.8 |
| 20260507121533 | 61 | 323 | 5.2 | 7.8 | 0.00 | 0.00 | 0.00 | 45 | 990.9 |
| 20260507121027 | 62 | 295 | 2.6 | 7.8 | 0.00 | 0.00 | 0.00 | 45 | 990.9 |
| 20260507120533 | 62 | 283 | 3.5 | 4.3 | 0.00 | 0.00 | 0.00 | 45 | 990.9 |
| 20260507120021 | 61 | 258 | 2.6 | 6.1 | 0.00 | 0.00 | 0.00 | 46 | 991.0 |
| 20260507115556 | 60 | 291 | 2.6 | 8.7 | 0.00 | 0.00 | 0.00 | 47 | 991.1 |
| 20260507115008 | 60 | 309 | 2.6 | 8.7 | 0.00 | 0.00 | 0.00 | 49 | 991.0 |
| 20260507114517 | 60 | 280 | 4.3 | 6.1 | 0.00 | 0.00 | 0.00 | 49 | 991.2 |
| 20260507114008 | 61 | 307 | 1.7 | 4.3 | 0.00 | 0.00 | 0.00 | 46 | 991.1 |
| 20260507113530 | 61 | 275 | 0.9 | 3.5 | 0.00 | 0.00 | 0.00 | 46 | 991.2 |
| 20260507113000 | 60 | 278 | 3.5 | 6.1 | 0.00 | 0.00 | 0.00 | 47 | 991.3 |
| 20260507112508 | 60 | 239 | 3.5 | 11.3 | 0.00 | 0.00 | 0.00 | 50 | 991.1 |
| 20260507111955 | 59 | 271 | 10.4 | 10.4 | 0.00 | 0.00 | 0.00 | 52 | 991.1 |
| 20260507111503 | 60 | 290 | 6.1 | 12.2 | 0.00 | 0.00 | 0.00 | 49 | 991.1 |
| 20260507110950 | 61 | 296 | 7.8 | 7.8 | 0.00 | 0.00 | 0.00 | 47 | 991.1 |
| 20260507105951 | 58 | 188 | 2.6 | 6.1 | 0.00 | 0.00 | 0.00 | 56 | 991.1 |
| 20260507105449 | 58 | 282 | 6.1 | 11.3 | 0.00 | 0.00 | 0.00 | 56 | 991.1 |
| 20260507105002 | 59 | 288 | 5.2 | 13.0 | 0.00 | 0.00 | 0.00 | 56 | 991.2 |
| 20260507104432 | 60 | 278 | 5.2 | 14.8 | 0.00 | 0.00 | 0.00 | 53 | 991.2 |
| 20260507103924 | 59 | 266 | 7.0 | 9.6 | 0.00 | 0.00 | 0.00 | 51 | 991.1 |
| 20260507103436 | 59 | 172 | 3.5 | 10.4 | 0.00 | 0.00 | 0.00 | 52 | 991.1 |
| 20260507102929 | 58 | 322 | 5.2 | 6.1 | 0.00 | 0.00 | 0.00 | 56 | 991.1 |
| 20260507102422 | 58 | 275 | 4.3 | 12.2 | 0.00 | 0.00 | 0.00 | 55 | 991.1 |
| 20260507101915 | 57 | 279 | 2.6 | 10.4 | 0.00 | 0.00 | 0.00 | 56 | 991.1 |
| 20260507101417 | 57 | 322 | 6.1 | 13.9 | 0.00 | 0.00 | 0.00 | 59 | 991.1 |